TimeEST,TemperatureF,Dew PointF,Humidity,Sea Level PressureIn,VisibilityMPH,Wind Direction,Wind SpeedMPH,Gust SpeedMPH,PrecipitationIn,Events,Conditions,WindDirDegrees,DateUTC
12:54 AM,25.0,21.9,88,30.04,10.0,Calm,Calm,-,N/A,,Scattered Clouds,0,2013-03-06 05:54:00
1:54 AM,26.1,23.0,88,30.04,10.0,Calm,Calm,-,N/A,,Overcast,0,2013-03-06 06:54:00
2:16 AM,26.6,24.8,93,30.01,10.0,Calm,Calm,-,N/A,,Overcast,0,2013-03-06 07:16:00
2:54 AM,28.9,25.0,85,30.04,10.0,Calm,Calm,-,N/A,,Overcast,0,2013-03-06 07:54:00
4:21 AM,30.2,26.6,86,30.00,9.0,Calm,Calm,-,N/A,,Overcast,0,2013-03-06 09:21:00
4:54 AM,32.0,27.0,82,30.02,10.0,Calm,Calm,-,N/A,,Overcast,0,2013-03-06 09:54:00
5:34 AM,35.6,28.4,75,30.00,7.0,Variable,5.8,-,0.00,,Overcast,0,2013-03-06 10:34:00
5:46 AM,33.8,28.4,81,30.00,10.0,Variable,3.5,-,0.00,,Overcast,0,2013-03-06 10:46:00
5:54 AM,34.0,28.0,79,30.03,10.0,Variable,5.8,-,0.00,,Overcast,0,2013-03-06 10:54:00
6:15 AM,35.6,28.4,75,30.01,10.0,ENE,4.6,-,N/A,,Overcast,60,2013-03-06 11:15:00
7:54 AM,37.0,28.0,70,30.05,10.0,East,6.9,-,N/A,,Overcast,80,2013-03-06 12:54:00
8:50 AM,37.4,26.6,65,30.02,10.0,East,10.4,19.6,N/A,,Overcast,80,2013-03-06 13:50:00
8:54 AM,37.9,27.0,65,30.04,10.0,ENE,11.5,19.6,N/A,,Overcast,70,2013-03-06 13:54:00
9:54 AM,37.9,27.0,65,30.06,10.0,East,9.2,16.1,N/A,,Overcast,80,2013-03-06 14:54:00
10:54 AM,39.0,27.0,62,30.06,10.0,NE,9.2,-,N/A,,Overcast,50,2013-03-06 15:54:00
11:14 AM,39.2,26.6,61,30.03,10.0,ENE,11.5,21.9,N/A,,Overcast,60,2013-03-06 16:14:00
11:50 AM,37.4,26.6,65,30.03,10.0,Variable,6.9,-,N/A,,Overcast,0,2013-03-06 16:50:00
11:54 AM,37.9,25.0,60,30.06,10.0,East,11.5,17.3,N/A,,Overcast,80,2013-03-06 16:54:00
12:54 PM,37.0,25.0,62,30.07,10.0,East,16.1,24.2,N/A,,Overcast,100,2013-03-06 17:54:00
1:54 PM,37.0,25.0,62,30.07,10.0,NNE,9.2,20.7,N/A,,Overcast,30,2013-03-06 18:54:00
2:54 PM,37.0,25.0,62,30.06,10.0,NNE,8.1,-,N/A,,Overcast,30,2013-03-06 19:54:00
3:54 PM,37.0,25.0,62,30.07,8.0,ENE,6.9,-,N/A,,Overcast,60,2013-03-06 20:54:00
4:54 PM,36.0,25.0,64,30.08,10.0,ENE,6.9,-,N/A,,Overcast,70,2013-03-06 21:54:00
5:13 PM,35.6,26.6,70,30.07,2.5,NE,8.1,19.6,0.00,Snow,Light Snow,50,2013-03-06 22:13:00
5:20 PM,35.6,24.8,65,30.07,3.0,East,9.2,18.4,0.00,Snow,Light Snow,90,2013-03-06 22:20:00
5:54 PM,36.0,21.9,57,30.10,10.0,Variable,4.6,21.9,0.00,,Overcast,0,2013-03-06 22:54:00
6:54 PM,35.1,19.9,54,30.12,10.0,Variable,5.8,18.4,N/A,,Overcast,0,2013-03-06 23:54:00
7:54 PM,35.1,19.9,54,30.12,10.0,NE,8.1,21.9,N/A,,Overcast,40,2013-03-07 00:54:00
8:54 PM,34.0,21.0,59,30.10,10.0,Variable,4.6,-,N/A,,Overcast,0,2013-03-07 01:54:00
9:54 PM,34.0,21.9,61,30.10,10.0,NNE,9.2,19.6,N/A,,Overcast,20,2013-03-07 02:54:00
10:54 PM,34.0,21.9,61,30.10,10.0,Variable,6.9,-,N/A,,Overcast,0,2013-03-07 03:54:00
11:44 PM,33.8,21.2,60,30.08,10.0,North,11.5,17.3,N/A,,Overcast,10,2013-03-07 04:44:00
11:54 PM,33.1,21.9,64,30.10,10.0,Variable,6.9,18.4,N/A,,Overcast,0,2013-03-07 04:54:00